Location: Hagen
(51.3456°N, 7.4557°E)
Time: 18:27:59
(UTC+01:00)

OTV 5 (USA 277) - Visible Passes

Search period start: 19 January 2018 00:00
Search period end: 29 January 2018 00:00
Orbit: 404 x 417 km, 43.0° (Epoch: 07 September)

Date Brightness Start Highest point End Pass type
(mag) Time Alt. Az. Time Alt. Az. Time Alt. Az.
25 Jan ? 19:12:17 10° SSW 19:13:51 14° SSE 19:13:51 14° SSE visible
26 Jan ? 18:22:03 10° S 18:23:18 12° SSE 18:24:32 10° SE visible
26 Jan ? 19:57:20 10° SW 19:58:01 13° SW 19:58:01 13° SW visible
27 Jan ? 19:06:31 10° SW 19:08:56 18° S 19:09:24 18° SSE visible
28 Jan ? 18:15:50 10° SSW 18:18:03 16° SSE 18:20:16 10° SE visible
28 Jan ? 19:52:10 10° SW 19:53:32 17° SSW 19:53:32 17° SSW visible
